This demonstration page uses our WeatherBlox Daily Observations layout. Learn more.

Left ArrowRight Arrow

34.02893, -84.19858

Hourly Observations for November 19, 2016

Temp ( °F °C ) Dew Point ( °F °C ) Humidity (%) Winds ( mph kmh ) Pressure ( in mb ) Visibility ( mi km ) Precip ( " mm )
12:53 am 00:53 Clear with Smoke 48 8.9 42 5.6 80 80 Calm 30.10 1019 10 16 0.00 0.00
1:53 am 01:53 Clear with Smoke 47 8.3 41 5 80 80 Calm 30.11 1020 9 14 0.00 0.00
2:53 am 02:53 Clear with Smoke 46 7.8 41 5 83 83 Calm 30.09 1019 10 16 0.00 0.00
3:53 am 03:53 Clear with Smoke 47 8.3 41 5 80 80 SW 6 9 30.09 1019 10 16 0.00 0.00
4:53 am 04:53 Clear with Smoke 54 12.2 47 8.3 77 77 SSW 8 13 30.06 1018 10 16 0.00 0.00
5:53 am 05:53 Clear with Smoke 55 12.8 49 9.4 80 80 SW 6 9 30.06 1018 10 16 0.00 0.00
6:53 am 06:53 Cloudy with Smoke 57 13.9 50 10 78 78 WSW 10 17 30.08 1019 10 16 0.00 0.00
7:12 am 07:12 Cloudy with Smoke 55 13 50 10 82 82 W 14 22 30.09 1019 10 16 0.00 0.00
7:53 am 07:53 Cloudy with Smoke 58 14.4 50 10 75 75 WNW 14 22 30.11 1020 10 16 0.00 0.00
8:06 am 08:06 Cloudy with Smoke 57 14 48 9 72 72 WNW 8 13 30.12 1020 10 16 0.00 0.00
8:40 am 08:40 Cloudy with Smoke 55 13 46 8 72 72 WNW 17 28 30.15 1021 10 16 0.00 0.00
8:53 am 08:53 Cloudy with Smoke 55 12.8 46 7.8 72 72 WNW 15 24 30.16 1021 10 16 0.00 0.00
9:53 am 09:53 Mostly Cloudy with Smoke 55 12.8 43 6.1 64 64 NW 21 33 30.18 1022 10 16 0.00 0.00
10:04 am 10:04 Partly Cloudy with Smoke 55 13 43 6 63 63 NW 18 30 30.18 1022 10 16 0.00 0.00
10:53 am 10:53 Sunny with Smoke 56 13.3 36 2.2 47 47 NW 20 31 30.19 1022 10 16 0.00 0.00
11:53 am 11:53 Sunny with Smoke 56 13.3 33 0.6 42 42 NW 25 41 30.20 1023 10 16 0.00 0.00
12:53 pm 12:53 Sunny with Smoke 56 13.3 29 -1.7 36 36 NNW 20 31 30.19 1022 10 16 0.00 0.00
1:53 pm 13:53 Sunny with Smoke 57 13.9 27 -2.8 32 32 NW 16 26 30.19 1022 10 16 0.00 0.00
2:53 pm 14:53 Sunny with Smoke 57 13.9 23 -5 27 27 NW 23 37 30.18 1022 10 16 0.00 0.00
3:53 pm 15:53 Sunny with Smoke 57 13.9 25 -3.9 29 29 NW 15 24 30.19 1022 10 16 0.00 0.00
4:53 pm 16:53 Sunny with Smoke 53 11.7 19 -7.2 26 26 NW 17 28 30.20 1023 10 16 0.00 0.00
5:53 pm 17:53 Clear with Smoke 51 10.6 19 -7.2 28 28 NW 16 26 30.21 1023 10 16 0.00 0.00
6:53 pm 18:53 Clear with Smoke 50 10 18 -7.8 28 28 NW 16 26 30.22 1023 10 16 0.00 0.00
7:53 pm 19:53 Clear with Smoke 47 8.3 20 -6.7 34 34 WNW 8 13 30.22 1024 10 16 0.00 0.00
8:53 pm 20:53 Clear with Smoke 47 8.3 17 -8.3 30 30 NW 12 19 30.24 1024 10 16 0.00 0.00
9:53 pm 21:53 Clear with Smoke 46 7.8 15 -9.4 29 29 NW 10 17 30.24 1024 10 16 0.00 0.00
10:53 pm 22:53 Clear with Smoke 45 7.2 18 -7.8 34 34 NW 9 15 30.24 1024 10 16 0.00 0.00
11:53 pm 23:53 Clear with Smoke 42 5.6 19 -7.2 40 40 NW 7 11 30.24 1024 10 16 0.00 0.00

Powered by AerisWeather